Location: Unspecified
(0.0000°N, 0.0000°E)
Time: 00:47:34
(UTC+02:00)

Ariane H10-3 - Visible Passes

Search period start: 29 June 2017 00:00
Search period end: 09 July 2017 00:00
Orbit: 205 x 20037 km, 7.2° (Epoch: 27 June)

Date Brightness Start Highest point End Pass type
(mag) Time Alt. Az. Time Alt. Az. Time Alt. Az.
29 Jun 7.3 06:21:43 10° W 10:05:40 71° S 10:16:01 10° E visible
29 Jun 7.9 22:27:03 10° WNW 22:45:54 78° N 03:02:40 10° E visible
30 Jun 7.7 05:19:41 10° W 09:26:04 73° S 09:39:31 10° E visible
30 Jun 7.5 21:50:11 10° WNW 22:04:23 75° N 02:12:37 10° E visible
01 Jul 8.2 04:28:26 10° W 08:44:34 75° S 09:02:28 10° E visible
01 Jul 7.0 21:13:05 10° WNW 21:23:57 71° N 01:12:04 10° E visible
02 Jul 8.6 03:41:57 10° W 08:00:16 77° S 08:24:46 10° E visible
02 Jul 6.6 20:35:41 10° WNW 20:44:05 67° N 23:37:26 10° E visible
03 Jul 9.1 02:58:01 10° W 07:11:14 79° S 07:46:21 10° E visible
03 Jul 6.1 19:58:00 10° WNW 20:04:31 63° N 21:10:37 10° E visible
04 Jul 9.1 02:15:32 10° W 06:12:24 81° S 07:07:09 10° E visible
04 Jul 5.7 19:20:01 10° WNW 19:25:03 57° N 19:57:58 10° E visible
05 Jul 9.0 01:33:54 10° W 04:39:13 84° SSW 06:27:00 10° E visible
06 Jul 8.8 00:52:47 10° W 02:26:44 89° SSW 05:45:44 10° E visible
07 Jul 8.7 00:11:55 10° W 01:04:53 88° NNE 05:03:04 10° E visible
07 Jul 8.6 23:31:09 10° W 00:05:18 85° NNE 04:18:32 10° E visible
08 Jul 6.9 07:39:18 10° W 10:32:41 73° S 10:40:58 10° E visible
